[[{"header":{"parameterUnit":"m.s-1","parameterCategory":1,"la1":30.2991,"la2":30.254,"lo1":-89.0895,"lo2":-89.0444,"dy":0.0017,"dx":0.0017,"nx":28,"ny":28,"refTime":"2026-01-03T09:00:00:Z","depth":0,"parameterNumber":2,"parameterNumberName":"U-component_of_WINDS"},"data":[0,0,0,0,0,0,0,0,0,0,0,0,0,0,0,0,0,0,0,0,0,0,0,0,0,0,0,0,0,0,0,0,0,0,0,0,0,0,0,0,0,0,0,0,0,0,0,0,0,0,0,0,0,0,0,0,0,0,-1.3045,-1.3045,0,-1.3053,-1.3053,-1.3053,-1.3012,-1.3011,-1.3009,-1.3008,-1.3019,-1.302,-1.3021,0,0,0,0,0,0,0,0,0,0,0,0,0,-1.2995,-1.2997,-1.3045,-1.3045,-1.3045,-1.3053,-1.3053,-1.3053,-1.3012,-1.3011,-1.3009,-1.3008,-1.3018,-1.302,-1.3021,0,0,0,0,0,0,0,0,0,0,0,0,0,-1.3012,-1.2997,-1.3045,-1.3025,-1.3024,-1.3053,-1.3053,-1.3053,-1.3012,-1.3011,-1.3009,-1.3007,-1.3018,-1.302,-1.3022,-1.307,0,0,-1.3028,-1.3029,0,0,0,0,0,0,0,0,-1.3011,-1.3014,-1.3028,-1.3027,-1.3025,-1.3029,-1.3039,-1.3059,-1.3013,-1.3017,-1.3008,-1.3006,-1.3024,-1.3025,-1.3031,-1.3071,-1.3071,-1.3028,-1.3029,-1.303,-1.3031,0,0,0,0,0,0,0,-1.301,-1.3013,-1.3048,-1.3028,-1.3026,-1.3017,-1.3017,-1.3043,-1.303,-1.3016,-1.3013,-1.3015,-1.3023,-1.3029,-1.3031,-1.3071,-1.3028,-1.303,-1.3031,-1.3032,-1.3153,-1.3155,0,0,0,0,0,0,-1.3011,-1.3012,-1.3048,-1.3048,-1.3013,-1.3019,-1.302,-1.303,-1.303,-1.3028,-1.3016,-1.3013,-1.3026,-1.3028,-1.3031,-1.3089,-1.303,-1.3032,-1.3034,-1.3151,-1.3153,-1.3156,0,0,0,0,0,0,-1.301,-1.3014,-1.3047,-1.3029,-1.3033,-1.3022,-1.3034,-1.3031,-1.3037,-1.303,-1.3028,-1.3025,-1.3025,-1.3028,-1.3061,-1.3089,-1.3033,-1.3035,-1.3149,-1.3152,-1.3155,-1.3205,0,0,0,0,0,0,-1.3009,-1.3014,-1.3032,-1.303,-1.3034,-1.3077,-1.3035,-1.3032,-1.3041,-1.3036,-1.3037,-1.3036,-1.3024,-1.3058,-1.3063,-1.3091,-1.3037,-1.3146,-1.315,-1.3154,-1.3201,-1.3209,-1.3217,0,0,0,0,0,-1.3007,-1.3046,-1.3033,-1.3038,-1.3056,-1.3079,-1.3081,-1.3066,-1.3043,-1.3061,-1.3057,-1.3036,-1.3085,-1.3062,-1.3067,-1.3096,-1.3144,-1.3149,-1.3153,-1.3197,-1.3208,-1.3216,0,0,0,0,0,0,-1.3053,-1.3046,-1.3031,-1.3071,-1.3076,-1.3072,-1.3094,-1.3077,-1.3089,-1.3084,-1.3065,-1.3066,-1.3102,-1.3102,-1.3077,-1.3143,-1.3111,-1.3116,-1.3142,-1.3152,-1.316,-1.316,-1.3038,0,0,0,0,0,-1.3067,-1.3086,-1.3079,-1.3114,-1.3117,-1.3106,-1.3115,-1.3102,-1.3107,-1.3109,-1.3106,-1.3112,-1.3129,-1.314,-1.3155,-1.32,-1.3201,-1.3222,-1.323,-1.3237,-1.3242,-1.3268,-1.3278,-1.317,-1.317,-1.317,0,0,-1.3098,-1.3096,-1.3109,-1.3123,-1.3126,-1.3146,-1.3107,-1.313,-1.3145,-1.3112,-1.3144,-1.3142,-1.3147,-1.3187,-1.3204,-1.3188,-1.3272,-1.3242,-1.3248,-1.325,-1.3273,-1.3283,-1.3292,-1.3173,-1.3173,-1.3172,0,0,-1.3164,-1.3164,-1.3195,-1.3197,-1.3201,-1.3193,-1.32,-1.3199,-1.3196,-1.3227,-1.3203,-1.3221,-1.325,-1.3255,-1.3261,-1.3329,-1.3311,-1.3334,-1.3376,-1.3401,-1.3409,-1.3417,-1.3443,-1.3452,-1.334,-1.334,-1.334,0,-1.3202,-1.3231,-1.3212,-1.3237,-1.3245,-1.3215,-1.3246,-1.325,-1.3258,-1.3265,-1.3246,-1.3282,-1.3283,-1.3324,-1.334,-1.3346,-1.3355,-1.3335,-1.3409,-1.3417,-1.3423,-1.3448,-1.3458,-1.3343,-1.3342,-1.3342,-1.3342,0,-1.3278,-1.3298,-1.3322,-1.3331,-1.3341,-1.3369,-1.3355,-1.3368,-1.3354,-1.3349,-1.3381,-1.3381,-1.3396,-1.3404,-1.3392,-1.3444,-1.3434,-1.3412,-1.338,-1.3437,-1.346,-1.3469,-1.3347,-1.3346,-1.3345,-1.3344,0,0,-1.3374,-1.3372,-1.3382,-1.3386,-1.3387,-1.3403,-1.343,-1.3444,-1.3455,-1.3462,-1.3485,-1.351,-1.349,-1.3497,-1.3485,-1.3506,-1.3562,-1.3482,-1.3482,-1.3499,-1.3621,-1.3639,-1.365,-1.3549,-1.3551,-1.3552,-1.3621,0,-1.344,-1.3485,-1.347,-1.3516,-1.3535,-1.3507,-1.3531,-1.3535,-1.353,-1.3546,-1.3541,-1.3559,-1.3531,-1.3535,-1.3555,-1.3551,-1.3587,-1.3546,-1.3572,-1.3573,-1.3573,-1.3661,-1.368,-1.3745,-1.363,-1.3632,-1.3633,0,-1.3524,-1.3534,-1.3582,-1.3581,-1.3589,-1.361,-1.3622,-1.3637,-1.3641,-1.3636,-1.3644,-1.3628,-1.3654,-1.362,-1.3658,-1.363,-1.364,-1.3639,-1.3642,-1.3645,-1.3608,-1.3669,-1.3765,-1.3776,-1.3646,-1.3645,-1.3644,0,-1.3591,-1.3617,-1.3649,-1.3653,-1.3652,-1.3668,-1.3669,-1.3671,-1.3681,-1.3691,-1.3697,-1.3711,-1.3719,-1.373,-1.3718,-1.3694,-1.3758,-1.3722,-1.3756,-1.3756,-1.3772,-1.3772,-1.3873,-1.3775,-1.3775,-1.3775,-1.3775,0,-1.3668,-1.3699,-1.3679,-1.37,-1.3734,-1.3715,-1.375,-1.3747,-1.375,-1.377,-1.3746,-1.3765,-1.3747,-1.3764,-1.3755,-1.3788,-1.3792,-1.3789,-1.3787,-1.3793,-1.3793,-1.38,-1.3796,-1.3778,-1.3777,-1.3777,-1.3776,0,-1.375,-1.3738,-1.3771,-1.3768,-1.3768,-1.3793,-1.3791,-1.381,-1.3803,-1.3828,-1.3833,-1.3823,-1.3842,-1.3831,-1.3851,-1.3844,-1.3889,-1.3879,-1.3887,-1.3885,-1.392,-1.3918,-1.4031,-1.4046,-1.3937,-1.3938,-1.3939,0,-1.38,-1.3823,-1.3822,-1.3833,-1.3836,-1.3854,-1.3864,-1.3846,-1.3858,-1.3864,-1.3883,-1.39,-1.3914,-1.3947,-1.3942,-1.3957,-1.3949,-1.3987,-1.3951,-1.3957,-1.3952,-1.3951,-1.3954,-1.3996,-1.3997,-1.3998,-1.3999,0,-1.3891,-1.3884,-1.3899,-1.3912,-1.3924,-1.3933,-1.3941,-1.3951,-1.3934,-1.3948,-1.3968,-1.3978,-1.3999,-1.4017,-1.403,-1.4031,-1.4013,-1.401,-1.4019,-1.4026,-1.403,-1.403,-1.3909,-1.4008,-1.4007,-1.4006,-1.4006,-1.4005,-1.396,-1.398,-1.3982,-1.4,-1.4003,-1.4011,-1.4029,-1.4024,-1.404,-1.4055,-1.4044,-1.4068,-1.4072,-1.4088,-1.4092,-1.4111,-1.4095,-1.4108,-1.4111,-1.4115,-1.412,-1.4026,-1.4113,-1.4112,-1.4112,-1.4112,-1.4112,0,-1.4052,-1.4052,-1.4068,-1.4079,-1.4093,-1.4073,-1.408,-1.4093,-1.4114,-1.4119,-1.4133,-1.4156,-1.4174,-1.417,-1.4186,-1.4202,-1.4194,-1.4207,-1.4207,-1.4208,-1.4132,-1.4124,-1.4214,-1.4214,-1.4213,-1.4213,-1.4213,-1.4213,-1.4101,-1.4134,-1.4127,-1.4162,-1.4162,-1.4185,-1.4191,-1.4198,-1.4202,-1.4229,-1.4244,-1.424,-1.4242,-1.4258,-1.4274,-1.4273,-1.4281,-1.4297,-1.4293,-1.4223,-1.4213,-1.4203,-1.4195,-1.4298,-1.4299,-1.4367,-1.4367,-1.4368]},{"header":{"parameterUnit":"m.s-1","parameterCategory":1,"la1":30.2991,"la2":30.254,"lo1":-89.0895,"lo2":-89.0444,"dy":0.0017,"dx":0.0017,"nx":28,"ny":28,"refTime":"2026-01-03T09:00:00:Z","depth":0,"parameterNumber":3,"parameterNumberName":"V-component_of_WINDS"},"data":[0,0,0,0,0,0,0,0,0,0,0,0,0,0,0,0,0,0,0,0,0,0,0,0,0,0,0,0,0,0,0,0,0,0,0,0,0,0,0,0,0,0,0,0,0,0,0,0,0,0,0,0,0,0,0,0,0,0,-2.4703,-2.4704,0,-2.4744,-2.4744,-2.4745,-2.4711,-2.471,-2.4709,-2.4707,-2.4749,-2.4752,-2.4754,0,0,0,0,0,0,0,0,0,0,0,0,0,-2.4598,-2.46,-2.4703,-2.4704,-2.4704,-2.4744,-2.4744,-2.4745,-2.4712,-2.471,-2.4708,-2.4707,-2.4749,-2.4751,-2.4754,0,0,0,0,0,0,0,0,0,0,0,0,0,-2.4642,-2.4601,-2.4703,-2.4693,-2.4692,-2.4743,-2.4744,-2.4745,-2.4712,-2.471,-2.4708,-2.4706,-2.4748,-2.4751,-2.4755,-2.4819,0,0,-2.4766,-2.4767,0,0,0,0,0,0,0,0,-2.4639,-2.4646,-2.4694,-2.4693,-2.4693,-2.472,-2.4722,-2.477,-2.4713,-2.4704,-2.4707,-2.4705,-2.4742,-2.4746,-2.4758,-2.4821,-2.4823,-2.4766,-2.4768,-2.477,-2.4771,0,0,0,0,0,0,0,-2.4636,-2.4644,-2.4719,-2.4694,-2.4694,-2.4686,-2.469,-2.4731,-2.4734,-2.4705,-2.4703,-2.4708,-2.4741,-2.4754,-2.4758,-2.4824,-2.4766,-2.4769,-2.4772,-2.4773,-2.4943,-2.4945,0,0,0,0,0,0,-2.4634,-2.4642,-2.4718,-2.4721,-2.466,-2.469,-2.4694,-2.4714,-2.4734,-2.4735,-2.471,-2.4706,-2.4749,-2.4754,-2.476,-2.4838,-2.477,-2.4773,-2.4775,-2.4941,-2.4943,-2.4946,0,0,0,0,0,0,-2.4632,-2.4642,-2.4716,-2.468,-2.4689,-2.4694,-2.4716,-2.4716,-2.4729,-2.4737,-2.4738,-2.4723,-2.4748,-2.4755,-2.4805,-2.4839,-2.4775,-2.4778,-2.4938,-2.4941,-2.4945,-2.4993,0,0,0,0,0,0,-2.4629,-2.4641,-2.4665,-2.4681,-2.4691,-2.4761,-2.4718,-2.4718,-2.4735,-2.4731,-2.475,-2.4751,-2.4747,-2.48,-2.4808,-2.4842,-2.4781,-2.4935,-2.4939,-2.4943,-2.4989,-2.4998,-2.5006,0,0,0,0,0,-2.4626,-2.4678,-2.4667,-2.4676,-2.4722,-2.4763,-2.4769,-2.4763,-2.4738,-2.4763,-2.4768,-2.475,-2.4833,-2.4805,-2.4815,-2.485,-2.4933,-2.4938,-2.4943,-2.4985,-2.4996,-2.5006,0,0,0,0,0,0,-2.4666,-2.4679,-2.4668,-2.4726,-2.4744,-2.4757,-2.4788,-2.4775,-2.48,-2.4795,-2.4786,-2.4791,-2.4844,-2.4852,-2.482,-2.4914,-2.4879,-2.4886,-2.4907,-2.4918,-2.4927,-2.4924,-2.4784,0,0,0,0,0,-2.4681,-2.4713,-2.4723,-2.4774,-2.4783,-2.4784,-2.4802,-2.4795,-2.4813,-2.4821,-2.4829,-2.4848,-2.4878,-2.4898,-2.4926,-2.4989,-2.4993,-2.5018,-2.5027,-2.5034,-2.5041,-2.5076,-2.5088,-2.4963,-2.4963,-2.4963,0,0,-2.4714,-2.4725,-2.4746,-2.4782,-2.4795,-2.4829,-2.4791,-2.4828,-2.4853,-2.4826,-2.4875,-2.4882,-2.4901,-2.4958,-2.4984,-2.4967,-2.5076,-2.504,-2.5046,-2.5049,-2.5082,-2.5094,-2.5105,-2.4967,-2.4966,-2.4965,0,0,-2.4791,-2.4803,-2.4846,-2.486,-2.488,-2.488,-2.489,-2.4906,-2.491,-2.4958,-2.4939,-2.4968,-2.502,-2.5036,-2.505,-2.5133,-2.5118,-2.5142,-2.5188,-2.5222,-2.5232,-2.524,-2.5271,-2.5282,-2.5148,-2.5149,-2.5149,0,-2.483,-2.488,-2.4871,-2.4909,-2.4926,-2.4903,-2.4948,-2.4961,-2.4989,-2.5002,-2.4981,-2.5047,-2.5058,-2.5119,-2.5139,-2.5151,-2.5164,-2.5141,-2.5231,-2.5239,-2.5247,-2.5277,-2.5289,-2.5152,-2.5151,-2.5151,-2.5151,0,-2.4926,-2.4961,-2.4994,-2.5022,-2.5042,-2.5084,-2.5081,-2.5103,-2.5095,-2.5097,-2.5147,-2.516,-2.519,-2.5204,-2.5196,-2.5264,-2.5253,-2.5232,-2.5197,-2.5263,-2.529,-2.5301,-2.5156,-2.5155,-2.5154,-2.5153,0,0,-2.5032,-2.5054,-2.5066,-2.5079,-2.5098,-2.5125,-2.5166,-2.5195,-2.5215,-2.5234,-2.5269,-2.5313,-2.5294,-2.531,-2.5304,-2.5334,-2.54,-2.5309,-2.531,-2.5327,-2.5477,-2.5494,-2.5508,-2.5389,-2.5391,-2.5393,-2.5476,0,-2.5111,-2.5182,-2.5175,-2.5242,-2.5274,-2.5253,-2.5288,-2.5304,-2.5307,-2.5335,-2.5339,-2.5371,-2.5342,-2.5352,-2.5381,-2.5386,-2.543,-2.538,-2.5423,-2.5424,-2.542,-2.5522,-2.554,-2.5618,-2.5487,-2.5489,-2.549,0,-2.5214,-2.5237,-2.5308,-2.5323,-2.5336,-2.5368,-2.5395,-2.5422,-2.544,-2.544,-2.5459,-2.5447,-2.5488,-2.5451,-2.5508,-2.5474,-2.549,-2.5496,-2.5498,-2.5504,-2.5463,-2.5532,-2.5643,-2.5655,-2.5506,-2.5505,-2.5504,0,-2.5285,-2.5334,-2.5383,-2.5394,-2.5413,-2.5436,-2.5445,-2.5461,-2.5479,-2.5503,-2.5515,-2.5543,-2.5559,-2.5581,-2.5577,-2.555,-2.5636,-2.5598,-2.5639,-2.5639,-2.566,-2.5659,-2.5777,-2.5667,-2.5667,-2.5667,-2.5666,0,-2.5376,-2.5421,-2.5416,-2.5446,-2.5496,-2.5487,-2.5536,-2.5542,-2.5556,-2.5587,-2.5569,-2.5599,-2.5592,-2.5622,-2.5619,-2.5668,-2.5674,-2.5676,-2.5676,-2.5679,-2.5679,-2.5692,-2.5687,-2.567,-2.5669,-2.5668,-2.5668,0,-2.5466,-2.5464,-2.5516,-2.5529,-2.5534,-2.557,-2.5581,-2.561,-2.5611,-2.5651,-2.566,-2.5662,-2.5696,-2.5694,-2.5733,-2.5731,-2.5792,-2.5783,-2.5786,-2.5785,-2.5826,-2.5823,-2.5958,-2.5976,-2.5853,-2.5854,-2.5855,0,-2.5525,-2.5558,-2.5575,-2.5595,-2.5605,-2.5637,-2.5656,-2.5648,-2.5668,-2.5691,-2.5718,-2.575,-2.5776,-2.5831,-2.5837,-2.5866,-2.586,-2.5905,-2.5864,-2.5867,-2.5863,-2.5862,-2.5866,-2.5914,-2.5915,-2.5916,-2.5917,0,-2.563,-2.5628,-2.5655,-2.5683,-2.5706,-2.5728,-2.5747,-2.5764,-2.5759,-2.5782,-2.5817,-2.5837,-2.5876,-2.5909,-2.5937,-2.5947,-2.5932,-2.593,-2.5941,-2.5946,-2.5947,-2.5949,-2.581,-2.5927,-2.5926,-2.5925,-2.5925,-2.5924,-2.5707,-2.5737,-2.5753,-2.5785,-2.5799,-2.5818,-2.5846,-2.585,-2.5879,-2.591,-2.5903,-2.5943,-2.596,-2.5996,-2.6008,-2.6039,-2.6023,-2.6039,-2.6044,-2.6048,-2.6054,-2.594,-2.6044,-2.6044,-2.6043,-2.6043,-2.6043,0,-2.5814,-2.5823,-2.5852,-2.588,-2.5905,-2.5888,-2.5908,-2.5931,-2.5966,-2.5982,-2.6008,-2.6048,-2.608,-2.6088,-2.6118,-2.6142,-2.6136,-2.615,-2.6149,-2.6152,-2.6066,-2.6054,-2.6154,-2.6154,-2.6154,-2.6154,-2.6154,-2.6154,-2.5872,-2.5921,-2.5921,-2.5977,-2.5986,-2.6024,-2.6038,-2.6055,-2.6069,-2.6114,-2.614,-2.6145,-2.6158,-2.619,-2.6218,-2.622,-2.6233,-2.6251,-2.625,-2.6169,-2.6158,-2.6147,-2.6136,-2.6253,-2.6253,-2.6334,-2.6334,-2.6335]}]]